Dewpoint
16 10 9 10 9 8 11 11 7 4 6 5 4 1 1 3 -1 -1 2 2 2 4 5 6 5 4 5 9 17 21 23 23 23 29 30 29 32 34 38 46 53 57 59 62 63 64 65 67 67 67 67 67 67 68 68 68 67 68 67 67 66 67 68 67 66 66 64 64 65 66 65 65 66 66 66 66 67 66 66 67 67 67 68 68 67 67
14 12 9 9 8 11 13 16 16 8 9 4 3 2 -3 4 1 -2 0 1 3 14 4 7 5 6 8 13 17 23 27 25 29 34 37 32 31 37 42 48 54 60 62 62 62 64 65 66 68 68 67 67 67 67 67 67 67 67 67 67 67 67 67 67 66 65 66 66 65 65 63 64 63 64 64 64 66 67 67 67 66 67 67 67 67 67
17 13 9 9 7 9 13 15 13 13 13 10 8 4 -0 3 0 -2 5 5 2 3 6 3 5 5 8 19 22 23 18 27 32 34 33 32 30 32 35 43 53 56 57 59 61 64 65 67 67 66 67 67 67 67 67 68 67 67 67 67 67 67 66 67 67 66 65 66 67 66 65 64 63 65 66 65 65 66 67 67 67 67 67 67 67 67
19 13 10 7 10 8 8 9 15 18 20 16 12 8 3 -0 -2 -1 10 7 6 7 8 7 5 8 16 26 27 22 11 34 37 37 36 32 35 33 36 44 53 53 59 59 60 62 63 65 66 66 66 66 67 66 67 67 68 67 67 67 67 66 67 66 66 66 65 65 66 67 67 67 66 65 65 66 66 67 68 68 68 68 68 67 66 66
17 15 12 8 7 5 12 13 17 17 16 20 13 4 -2 -3 -4 -4 7 8 8 4 12 4 11 9 16 23 27 34 38 38 37 39 42 44 43 42 42 48 49 54 59 59 59 61 63 64 65 66 66 66 66 67 66 67 67 67 66 67 66 66 66 67 66 67 67 67 66 67 66 66 66 66 65 65 64 66 67 67 67 68 67 67 67 67
17 16 12 7 7 4 10 12 11 13 18 17 15 5 -1 -1 -2 3 10 8 10 8 8 10 11 14 18 20 20 27 35 31 34 39 40 42 46 49 50 54 55 57 53 55 59 60 62 63 65 65 65 65 65 65 66 67 67 67 66 66 66 65 65 66 65 66 67 66 65 65 64 64 63 62 63 63 64 65 66 66 67 68 67 67 66 66
17 18 12 7 7 4 2 6 8 15 18 15 8 4 2 -1 1 4 6 7 11 7 9 17 12 13 17 18 19 26 27 29 35 43 44 44 41 45 52 54 55 57 59 60 61 60 62 64 64 65 65 65 65 65 66 66 66 66 66 66 66 65 66 66 66 66 66 65 64 64 64 64 64 64 64 65 65 65 65 66 66 66 68 67 67 67
17 14 12 10 8 4 1 8 15 16 13 6 8 4 3 1 -1 3 6 8 10 8 10 11 9 10 16 15 18 25 25 32 40 43 46 47 48 47 51 52 54 55 58 59 59 61 62 63 64 64 64 64 64 64 65 65 65 65 65 65 65 65 65 66 66 65 66 65 64 64 65 64 63 64 64 65 66 66 66 66 67 66 67 68 67 66
21 15 13 11 9 8 9 13 15 13 6 5 8 5 4 5 7 3 7 9 10 9 7 10 8 8 10 20 22 27 24 35 38 43 46 47 49 51 51 52 54 56 57 58 59 60 62 63 63 62 62 63 64 64 64 64 64 64 64 65 65 65 65 65 66 65 65 64 65 65 63 63 64 64 64 64 64 65 65 66 66 66 66 66 66 66
13 13 11 11 12 12 9 5 4 7 5 4 6 9 7 8 7 4 5 7 9 10 11 8 10 8 5 21 22 26 25 33 39 43 46 49 49 49 51 53 55 56 57 58 58 59 61 61 61 62 62 63 63 63 63 63 64 64 64 64 64 64 65 65 65 65 65 65 64 63 64 64 63 63 63 64 64 64 67 65 65 66 65 65 66 66
11 17 16 13 13 9 5 4 5 7 6 4 1 5 7 6 8 9 9 8 11 7 10 11 12 7 3 20 27 27 26 35 43 45 47 48 48 48 53 53 55 56 56 57 58 59 59 60 61 61 61 61 62 63 63 63 63 64 64 63 63 64 64 65 65 65 65 65 65 64 64 65 63 63 63 63 65 66 65 64 64 64 64 65 65 66
11 13 16 17 14 7 5 7 9 9 7 3 3 11 10 10 8 12 11 11 8 8 6 1 11 8 5 29 25 27 25 37 45 46 46 46 47 48 52 53 54 55 56 57 57 58 59 59 59 60 60 61 61 62 62 63 63 63 63 63 62 63 63 64 64 65 66 65 65 64 65 64 64 64 63 63 64 65 65 65 63 63 64 65 65 66
14 15 15 13 15 6 7 7 7 7 5 2 6 12 10 7 8 8 9 9 7 8 8 6 9 9 6 34 22 22 22 45 48 46 46 46 47 49 51 53 54 54 55 56 56 58 58 58 58 59 59 60 60 61 61 62 62 62 62 63 63 64 64 64 63 64 64 65 65 65 65 65 64 64 63 64 64 66 64 64 64 64 64 64 64 63
14 13 13 12 9 12 8 8 6 8 7 4 9 14 11 5 9 12 8 11 12 10 7 9 7 9 21 36 41 43 46 46 47 46 46 47 49 51 52 54 55 56 56 56 56 57 57 58 58 59 59 59 60 60 61 61 62 62 62 62 61 62 62 63 64 64 64 64 64 64 64 64 63 64 64 65 65 63 64 62 62 64 64 63 64 63
12 13 14 12 10 10 10 7 8 12 10 3 10 8 10 10 12 11 8 11 10 9 11 7 10 9 29 41 43 46 47 48 48 49 50 50 52 53 53 53 53 54 55 55 55 55 56 57 57 58 58 59 59 59 59 60 60 60 60 60 60 60 61 61 62 63 63 63 64 65 64 65 63 63 63 64 63 64 65 65 64 64 64 64 62 61
7 13 14 13 11 12 12 9 12 11 5 7 8 4 6 9 13 9 13 11 13 11 12 12 12 25 32 45 46 46 47 49 49 49 50 51 52 52 52 52 52 53 53 53 54 54 55 56 56 57 57 57 57 58 59 59 59 60 60 59 60 60 60 61 61 61 62 63 64 63 63 63 63 63 63 63 64 65 65 65 64 64 65 63 64 64
9 15 12 10 11 14 13 12 14 12 15 13 7 8 6 8 5 14 15 24 23 14 8 14 34 38 41 42 44 46 47 48 49 49 50 50 51 51 51 51 51 52 52 52 53 53 54 55 55 55 56 56 57 57 58 58 58 59 59 59 59 60 60 61 61 61 62 62 62 62 62 63 63 62 62 62 63 65 65 66 65 65 65 65 64 65
14 12 9 10 8 10 13 10 11 11 10 9 7 6 6 5 9 17 10 14 13 9 11 15 13 35 35 36 41 45 45 48 47 48 48 50 50 50 50 50 51 51 51 52 53 53 53 54 54 54 55 55 55 56 56 57 58 58 59 59 59 59 59 60 60 61 61 61 61 62 62 62 62 62 62 62 62 63 64 65 64 64 65 64 64 64
15 10 9 8 10 11 12 10 9 10 11 8 7 7 8 11 11 15 15 13 12 12 9 12 13 26 28 34 40 43 44 46 48 49 48 48 49 49 50 50 51 51 51 52 52 52 53 53 53 54 54 54 55 55 56 56 57 57 58 58 58 58 59 60 60 61 61 62 61 61 62 62 61 61 61 62 62 63 63 63 63 64 64 64 63 64
19 15 11 12 10 7 10 10 13 9 9 8 7 5 7 11 13 12 14 14 14 10 12 12 11 12 23 38 41 40 45 48 47 48 48 48 49 49 49 50 50 51 51 51 51 51 52 52 52 53 53 53 54 55 55 55 56 56 56 57 57 58 58 59 59 60 61 61 61 62 62 62 60 60 61 60 61 62 63 63 62 62 63 63 62 65
18 22 12 12 9 10 10 10 8 6 9 10 10 9 7 19 13 13 20 10 10 11 6 12 14 16 23 35 39 41 44 46 48 48 48 49 49 49 49 50 50 50 50 51 51 51 52 52 52 52 53 53 53 54 54 55 55 55 55 56 56 57 57 58 58 59 59 60 60 61 62 62 61 61 61 61 62 63 63 63 63 62 64 63 62 61
19 16 15 15 10 8 6 5 6 8 10 6 11 13 8 8 11 12 14 10 11 12 13 10 14 20 41 39 41 42 46 48 49 48 48 48 48 49 49 49 49 49 50 50 51 51 51 51 51 52 52 52 52 53 53 53 54 54 55 54 56 56 56 57 57 58 58 59 60 60 61 61 62 61 61 62 65 65 63 63 63 62 62 63 62 61
22 21 19 16 11 10 5 6 9 7 8 9 12 13 6 12 12 10 10 11 10 8 11 13 14 31 45 46 45 43 48 48 48 47 47 47 47 48 48 48 48 49 49 49 50 50 50 50 50 50 51 50 51 52 52 52 52 53 54 54 55 55 55 57 57 57 58 59 59 60 60 60 61 61 61 62 63 64 63 63 63 63 62 63 63 62
27 18 16 13 9 7 6 6 7 7 11 10 11 13 9 13 14 14 10 16 10 12 6 7 14 35 46 49 49 49 48 48 48 47 47 47 47 47 47 47 48 48 49 49 49 49 49 49 50 48 49 49 50 51 51 51 50 52 53 53 53 54 55 55 56 56 57 58 59 59 60 60 60 61 62 61 62 62 63 63 63 63 62 61 64 64
20 22 14 13 12 9 8 10 2 6 15 14 12 13 11 12 14 17 15 17 14 15 10 5 23 32 46 50 49 48 48 47 47 47 47 47 47 47 47 47 48 48 48 49 49 49 49 49 49 47 47 48 48 49 51 50 50 51 52 53 53 53 55 55 56 56 56 57 58 59 59 59 59 60 61 61 62 62 62 63 63 63 62 63 62 62
19 22 17 12 13 10 12 15 14 14 15 18 13 9 8 9 18 17 13 14 13 18 10 13 29 41 47 47 48 47 47 47 47 47 47 47 47 47 47 47 47 47 48 48 49 49 49 48 48 48 49 48 48 48 48 49 49 50 51 52 53 53 54 54 55 55 56 56 57 57 58 58 59 59 60 61 61 61 63 64 63 62 62 61 61 62
22 24 22 24 17 15 16 19 20 14 17 16 16 11 11 12 14 20 17 13 13 19 15 20 38 42 45 47 46 46 47 46 46 46 46 46 47 47 47 47 47 47 47 48 48 48 49 49 49 49 49 48 49 48 48 48 45 48 50 51 52 52 53 53 54 54 54 55 56 55 56 57 58 59 59 60 60 61 61 62 63 62 61 62 62 62
28 25 33 34 30 26 27 35 33 17 18 17 16 17 13 15 21 23 16 16 20 17 13 38 41 40 43 45 45 45 45 45 45 45 45 46 46 46 46 46 46 46 47 47 48 47 48 48 49 49 49 48 47 47 48 45 46 48 49 50 51 51 52 54 54 54 54 54 55 55 56 57 58 58 59 59 60 60 61 61 61 62 62 62 62 62
26 23 35 33 29 28 35 35 30 25 20 21 23 24 24 21 27 28 26 20 24 19 21 40 42 39 40 45 45 45 45 45 45 45 45 46 45 46 46 45 45 45 46 46 47 47 47 47 48 49 48 48 48 47 48 46 46 48 48 49 49 50 51 51 52 52 53 53 54 55 56 57 58 58 59 59 59 60 60 61 61 62 61 61 61 62
28 19 32 30 30 31 32 33 34 27 28 27 26 26 26 26 30 29 28 29 30 31 38 40 41 41 42 45 45 46 47 46 45 45 45 44 45 45 44 44 44 44 45 45 46 45 46 46 47 48 48 48 47 46 45 46 46 47 48 49 48 49 50 51 51 52 52 53 54 54 55 56 57 57 58 59 59 59 59 59 60 61 61 61 62 61
28 31 39 32 31 34 36 36 36 36 37 35 34 33 33 31 30 26 29 38 34 39 43 43 43 42 45 45 46 46 45 44 44 44 44 44 44 44 44 44 44 44 44 45 45 45 45 46 46 47 47 47 46 45 45 46 46 48 46 47 48 48 49 51 52 52 52 52 53 54 54 55 56 56 57 58 58 59 59 58 60 60 60 61 62 61
32 31 35 33 20 30 34 36 36 36 38 35 36 35 35 37 39 38 39 45 39 37 41 44 41 40 42 44 43 43 43 43 42 42 43 43 43 43 43 43 43 43 44 44 44 44 44 45 46 47 46 46 45 44 44 44 44 44 45 46 47 48 50 52 52 51 52 52 52 53 53 54 55 55 56 57 57 57 57 58 58 59 60 60 61 61
26 30 27 28 20 21 32 35 36 37 37 35 36 38 41 42 42 43 43 44 44 44 42 34 39 41 41 42 41 42 41 41 41 41 41 42 43 43 43 43 42 42 42 44 43 44 44 43 44 46 46 45 44 43 43 42 42 42 45 45 47 49 50 50 52 51 51 51 51 51 53 53 54 54 55 55 56 56 56 56 56 57 58 59 60 60
30 31 27 32 22 21 33 36 38 34 25 23 39 40 41 40 41 40 41 42 43 44 40 40 41 41 41 41 40 40 40 40 40 41 41 41 42 43 43 42 41 41 42 43 44 44 44 44 44 45 45 45 44 43 45 45 41 41 45 44 45 47 48 49 50 51 50 51 51 51 52 53 53 53 54 54 54 55 55 55 55 56 56 57 58 58
29 28 25 26 21 27 33 37 32 26 22 35 39 38 39 39 40 40 41 41 42 42 42 40 40 40 41 41 40 39 39 40 41 41 41 41 42 42 42 41 41 42 42 43 44 45 45 45 45 45 45 44 44 45 45 43 41 44 42 44 45 46 48 48 49 50 51 51 51 51 52 52 53 53 53 53 53 54 53 54 54 54 54 55 55 57
33 26 27 31 30 29 30 30 24 22 36 39 38 39 39 38 39 40 39 40 41 41 41 40 41 40 39 38 38 38 38 39 39 40 40 41 41 41 41 41 41 42 42 43 44 45 45 45 44 44 44 44 43 42 42 42 43 43 43 44 44 45 46 47 47 49 51 50 50 50 51 52 52 52 52 52 52 52 52 53 53 53 53 54 54 55
39 35 32 30 35 27 25 24 25 36 37 38 37 37 36 36 37 37 32 37 41 40 40 38 38 38 38 37 37 37 38 38 37 37 39 39 41 41 41 40 41 41 42 43 44 44 45 44 43 44 44 44 44 43 43 44 42 43 43 43 43 44 43 45 46 47 50 50 50 50 51 51 52 52 52 52 52 51 52 52 52 52 53 53 53 53
39 33 36 31 27 25 20 25 26 26 25 32 38 39 38 43 43 41 39 38 40 40 39 38 37 37 37 37 37 37 39 38 35 36 38 38 39 39 39 40 40 40 41 41 43 43 43 43 43 44 44 44 44 44 43 43 43 43 43 43 43 43 44 43 45 47 49 49 49 49 50 51 51 51 51 51 51 51 51 52 52 52 52 52 52 52
36 42 40 28 25 23 26 25 21 21 26 35 38 39 41 39 40 40 36 33 38 40 40 39 38 38 37 37 37 38 39 37 34 35 37 38 38 38 37 38 38 39 40 40 41 41 42 42 43 43 44 44 43 43 43 43 44 43 42 43 44 44 44 44 44 47 48 48 48 49 50 50 50 50 50 50 51 51 51 51 51 52 52 52 52 51
31 28 24 19 25 21 29 27 25 30 28 37 39 39 37 40 40 40 28 31 38 39 40 40 38 38 38 38 38 39 40 36 34 36 38 38 38 38 37 36 36 38 39 41 40 41 41 42 42 43 43 43 43 43 42 43 43 43 43 43 43 44 43 44 45 45 47 47 48 48 49 49 49 49 49 49 49 50 50 51 51 51 52 51 50 50
23 21 20 19 21 18 20 21 28 32 36 39 37 37 35 40 40 29 23 33 38 38 40 40 39 39 39 39 39 36 37 38 37 38 39 38 38 38 38 39 39 39 40 41 38 39 39 40 41 41 43 42 42 42 42 41 43 43 42 43 43 43 44 44 44 45 46 47 47 47 47 48 48 49 48 49 49 49 49 49 49 50 51 50 50 50
22 22 21 21 17 17 18 13 22 29 36 37 35 37 39 38 28 18 36 40 39 39 40 40 40 39 39 39 37 36 37 37 38 38 38 38 37 38 38 38 38 38 38 39 40 39 39 38 41 41 42 42 42 42 42 42 42 42 42 43 43 43 43 44 44 45 45 45 45 45 46 47 47 48 48 48 48 48 47 48 48 48 48 48 49 49
18 21 15 15 19 20 19 14 20 23 34 38 38 36 39 34 33 37 39 39 39 39 39 39 39 39 38 36 37 37 36 37 37 37 38 38 38 38 38 39 39 39 39 39 39 38 37 38 39 40 41 41 42 42 42 42 42 41 42 42 43 43 43 43 44 43 44 44 44 44 43 44 45 45 46 46 45 45 45 46 46 47 47 47 46 46
32 22 14 21 34 17 15 15 22 32 35 41 39 31 36 37 38 39 39 38 39 39 39 38 38 38 37 36 36 36 36 36 37 37 38 38 38 39 39 38 38 38 39 39 38 38 37 36 37 39 40 41 40 41 41 41 40 40 40 42 42 42 42 42 43 43 43 43 44 44 43 41 41 42 43 44 44 43 43 44 45 45 45 45 45 44
37 35 35 28 34 31 28 31 34 38 39 39 40 39 39 39 40 40 40 39 38 38 39 38 37 37 37 36 36 36 36 36 36 37 36 36 36 36 38 38 38 39 39 40 39 39 39 36 37 37 38 39 40 39 39 39 39 39 40 40 40 39 40 41 42 42 42 42 42 43 42 42 41 41 40 40 41 42 42 43 43 43 44 44 43 43
34 36 39 34 32 35 35 36 37 38 38 38 39 39 39 39 39 40 39 38 39 38 39 38 38 37 37 37 36 36 36 36 36 36 36 36 35 36 36 37 38 38 39 38 36 35 35 36 37 37 38 37 38 38 38 38 37 37 37 38 39 38 38 39 40 41 41 40 39 39 38 39 39 40 40 40 39 39 41 43 43 43 44 42 41 41
34 35 36 31 34 29 30 35 35 36 38 39 38 39 39 39 39 40 39 39 38 38 38 38 38 38 37 37 36 36 36 36 36 36 35 35 35 35 35 36 38 38 39 40 38 35 35 34 34 35 36 37 38 37 38 38 36 35 36 36 38 39 39 38 38 38 39 40 39 39 38 38 37 37 38 39 39 39 40 40 42 42 41 41 42 40
28 35 31 32 34 30 32 34 36 37 37 39 38 38 38 38 38 39 39 39 39 39 38 38 38 37 37 36 36 35 35 35 35 35 35 35 35 35 34 35 36 38 40 42 43 41 35 35 35 35 35 35 37 37 37 37 35 34 35 35 35 36 38 39 38 37 37 37 38 38 38 37 34 36 37 38 38 38 38 39 39 39 38 38 40 43
33 30 24 32 31 33 34 34 35 36 37 37 39 39 38 38 38 38 38 38 38 37 37 38 38 37 36 36 36 35 35 34 34 34 34 34 34 34 35 35 36 38 40 41 41 43 42 36 34 35 35 35 35 36 36 36 34 33 36 35 35 36 36 38 38 38 37 37 35 35 36 38 38 37 36 37 38 38 37 38 39 38 38 38 39 39
26 24 27 30 28 28 29 32 35 30 32 36 38 38 38 38 38 37 37 37 37 37 37 36 36 36 36 36 35 35 34 34 34 34 33 32 32 33 34 34 34 36 38 40 40 38 35 35 35 35 34 34 35 35 35 34 34 34 32 32 34 35 35 34 36 37 37 36 36 36 35 36 34 35 36 36 36 37 38 34 35 37 38 37 35 35
31 37 27 22 24 22 33 33 35 36 36 37 38 38 38 38 37 37 37 37 37 37 36 36 35 35 34 35 35 34 34 34 33 33 32 31 32 33 34 34 34 35 35 35 36 35 35 35 35 35 34 33 34 35 34 34 34 34 33 33 33 34 35 34 33 33 34 35 35 34 35 34 34 34 33 34 35 36 35 37 36 35 35 35 35 35